TimeMDT,TemperatureF,Dew PointF,Humidity,Sea Level PressureIn,VisibilityMPH,Wind Direction,Wind SpeedMPH,Gust SpeedMPH,PrecipitationIn,Events,Conditions,WindDirDegrees,DateUTC
12:15 AM,71.6,53.6,53,30.10,10.0,West,4.6,-,N/A,,Mostly Cloudy,280,2013-08-25 06:15:00
12:35 AM,71.6,53.6,53,30.11,10.0,SE,5.8,-,N/A,,Scattered Clouds,140,2013-08-25 06:35:00
12:55 AM,69.8,55.4,60,30.11,10.0,South,6.9,-,N/A,,Mostly Cloudy,170,2013-08-25 06:55:00
1:15 AM,66.2,55.4,68,30.13,10.0,South,6.9,-,N/A,,Scattered Clouds,170,2013-08-25 07:15:00
1:35 AM,64.4,55.4,73,30.12,10.0,SSE,5.8,-,N/A,,Clear,160,2013-08-25 07:35:00
1:55 AM,64.4,55.4,73,30.13,10.0,South,4.6,-,N/A,,Clear,190,2013-08-25 07:55:00
2:15 AM,64.4,55.4,73,30.12,10.0,Calm,Calm,-,N/A,,Clear,0,2013-08-25 08:15:00
2:35 AM,62.6,55.4,77,30.12,10.0,Calm,Calm,-,N/A,,Clear,0,2013-08-25 08:35:00
2:55 AM,62.6,55.4,77,30.11,10.0,Calm,Calm,-,N/A,,Clear,0,2013-08-25 08:55:00
3:15 AM,62.6,55.4,77,30.12,10.0,Calm,Calm,-,N/A,,Clear,0,2013-08-25 09:15:00
3:35 AM,62.6,53.6,72,30.12,10.0,Calm,Calm,-,N/A,,Clear,0,2013-08-25 09:35:00
3:55 AM,60.8,53.6,77,30.13,10.0,Calm,Calm,-,N/A,,Clear,0,2013-08-25 09:55:00
4:15 AM,60.8,53.6,77,30.13,10.0,NNW,3.5,-,N/A,,Clear,340,2013-08-25 10:15:00
4:35 AM,60.8,53.6,77,30.13,10.0,North,3.5,-,N/A,,Clear,350,2013-08-25 10:35:00
4:55 AM,60.8,53.6,77,30.13,10.0,NNW,4.6,-,N/A,,Clear,330,2013-08-25 10:55:00
5:15 AM,60.8,51.8,72,30.14,10.0,Calm,Calm,-,N/A,,Clear,0,2013-08-25 11:15:00
5:35 AM,59.0,53.6,82,30.14,10.0,Calm,Calm,-,N/A,,Clear,0,2013-08-25 11:35:00
5:55 AM,59.0,53.6,82,30.14,10.0,Calm,Calm,-,N/A,,Clear,0,2013-08-25 11:55:00
6:15 AM,59.0,51.8,77,30.15,10.0,Calm,Calm,-,N/A,,Clear,0,2013-08-25 12:15:00
6:35 AM,59.0,51.8,77,30.15,10.0,Calm,Calm,-,N/A,,Clear,0,2013-08-25 12:35:00
6:55 AM,60.8,53.6,77,30.16,10.0,Calm,Calm,-,N/A,,Clear,0,2013-08-25 12:55:00
7:15 AM,60.8,53.6,77,30.16,10.0,Calm,Calm,-,N/A,,Clear,0,2013-08-25 13:15:00
7:35 AM,62.6,53.6,72,30.16,10.0,Calm,Calm,-,N/A,,Clear,0,2013-08-25 13:35:00
7:55 AM,62.6,53.6,72,30.16,10.0,Calm,Calm,-,N/A,,Clear,0,2013-08-25 13:55:00
8:15 AM,64.4,53.6,68,30.16,10.0,Calm,Calm,-,N/A,,Clear,0,2013-08-25 14:15:00
8:35 AM,66.2,55.4,68,30.16,10.0,Calm,Calm,-,N/A,,Clear,0,2013-08-25 14:35:00
8:55 AM,69.8,53.6,56,30.17,10.0,NW,3.5,-,N/A,,Clear,320,2013-08-25 14:55:00
9:15 AM,71.6,53.6,53,30.16,10.0,WNW,4.6,-,N/A,,Clear,300,2013-08-25 15:15:00
9:35 AM,71.6,55.4,57,30.16,10.0,WNW,4.6,-,N/A,,Clear,300,2013-08-25 15:35:00
9:55 AM,75.2,55.4,50,30.17,10.0,Calm,Calm,-,N/A,,Clear,0,2013-08-25 15:55:00
10:15 AM,78.8,55.4,44,30.17,10.0,Calm,Calm,-,N/A,,Clear,0,2013-08-25 16:15:00
10:35 AM,80.6,57.2,45,30.17,10.0,Calm,Calm,-,N/A,,Clear,0,2013-08-25 16:35:00
10:55 AM,80.6,55.4,42,30.17,10.0,SW,3.5,-,N/A,,Clear,230,2013-08-25 16:55:00
11:15 AM,82.4,55.4,39,30.17,10.0,WSW,3.5,-,N/A,,Clear,240,2013-08-25 17:15:00
11:35 AM,82.4,55.4,39,30.17,10.0,Calm,Calm,-,N/A,,Clear,0,2013-08-25 17:35:00
11:55 AM,84.2,55.4,37,30.16,10.0,WNW,3.5,-,N/A,,Clear,300,2013-08-25 17:55:00
12:15 PM,86.0,53.6,33,30.15,9.0,ESE,3.5,-,N/A,,Clear,110,2013-08-25 18:15:00
12:35 PM,84.2,53.6,35,30.14,10.0,ENE,5.8,-,N/A,,Clear,60,2013-08-25 18:35:00
12:55 PM,86.0,51.8,31,30.14,9.0,East,4.6,-,N/A,,Clear,80,2013-08-25 18:55:00
1:15 PM,87.8,53.6,31,30.13,7.0,ENE,4.6,-,N/A,,Clear,70,2013-08-25 19:15:00
1:35 PM,87.8,53.6,31,30.13,9.0,ESE,6.9,-,N/A,,Clear,120,2013-08-25 19:35:00
1:55 PM,87.8,53.6,31,30.13,9.0,ESE,5.8,-,N/A,,Clear,110,2013-08-25 19:55:00
2:15 PM,87.8,51.8,29,30.12,9.0,SSE,3.5,-,N/A,,Clear,150,2013-08-25 20:15:00
2:35 PM,89.6,53.6,29,30.11,8.0,Calm,Calm,-,N/A,,Clear,0,2013-08-25 20:35:00
2:55 PM,89.6,50.0,26,30.11,10.0,Calm,Calm,-,N/A,,Clear,0,2013-08-25 20:55:00
3:15 PM,89.6,50.0,26,30.10,10.0,East,4.6,-,N/A,,Clear,90,2013-08-25 21:15:00
3:35 PM,89.6,50.0,26,30.09,10.0,Calm,Calm,-,N/A,,Clear,0,2013-08-25 21:35:00
3:55 PM,91.4,51.8,26,30.09,10.0,SSE,5.8,-,N/A,,Clear,160,2013-08-25 21:55:00
4:15 PM,89.6,51.8,27,30.08,10.0,Calm,Calm,-,N/A,,Clear,0,2013-08-25 22:15:00
4:35 PM,91.4,51.8,26,30.08,10.0,SSW,4.6,-,N/A,,Clear,200,2013-08-25 22:35:00
4:55 PM,91.4,51.8,26,30.07,10.0,South,5.8,-,N/A,,Clear,170,2013-08-25 22:55:00
5:15 PM,89.6,51.8,27,30.07,10.0,South,3.5,-,N/A,,Clear,170,2013-08-25 23:15:00
5:35 PM,89.6,51.8,27,30.07,10.0,WSW,3.5,-,N/A,,Clear,250,2013-08-25 23:35:00
5:55 PM,89.6,51.8,27,30.08,10.0,Calm,Calm,-,N/A,,Clear,0,2013-08-25 23:55:00
6:15 PM,87.8,57.2,35,30.08,10.0,Calm,Calm,-,N/A,,Partly Cloudy,0,2013-08-26 00:15:00
6:35 PM,86.0,57.2,37,30.08,10.0,Calm,Calm,-,N/A,,Scattered Clouds,0,2013-08-26 00:35:00
6:55 PM,86.0,55.4,35,30.09,10.0,SW,4.6,-,N/A,,Scattered Clouds,230,2013-08-26 00:55:00
7:15 PM,82.4,51.8,35,30.09,10.0,West,11.5,-,N/A,,Mostly Cloudy,280,2013-08-26 01:15:00
7:35 PM,80.6,51.8,37,30.10,10.0,NW,8.1,-,N/A,,Partly Cloudy,310,2013-08-26 01:35:00
7:55 PM,78.8,53.6,42,30.12,10.0,North,15.0,19.6,N/A,Thunderstorm,Clear,350,2013-08-26 01:55:00
8:15 PM,77.0,53.6,44,30.12,10.0,NNW,20.7,26.5,N/A,,Clear,330,2013-08-26 02:15:00
8:35 PM,75.2,53.6,47,30.13,10.0,NNW,17.3,-,N/A,,Partly Cloudy,340,2013-08-26 02:35:00
8:55 PM,75.2,53.6,47,30.14,10.0,NNW,12.7,-,N/A,,Partly Cloudy,340,2013-08-26 02:55:00
9:15 PM,73.4,53.6,50,30.16,10.0,WNW,5.8,-,N/A,,Clear,290,2013-08-26 03:15:00
9:35 PM,71.6,53.6,53,30.16,10.0,WNW,5.8,-,N/A,,Clear,290,2013-08-26 03:35:00
9:55 PM,69.8,55.4,60,30.16,10.0,NW,6.9,-,N/A,,Clear,310,2013-08-26 03:55:00
10:15 PM,68.0,55.4,64,30.16,10.0,North,3.5,-,N/A,,Clear,10,2013-08-26 04:15:00
10:35 PM,69.8,55.4,60,30.15,10.0,North,5.8,-,N/A,,Clear,360,2013-08-26 04:35:00
10:55 PM,66.2,55.4,68,30.15,10.0,NW,6.9,-,N/A,,Clear,320,2013-08-26 04:55:00
11:15 PM,66.2,55.4,68,30.14,10.0,WNW,6.9,-,N/A,,Clear,290,2013-08-26 05:15:00
11:35 PM,64.4,55.4,73,30.15,10.0,NW,6.9,-,N/A,,Clear,310,2013-08-26 05:35:00
11:55 PM,64.4,53.6,68,30.15,10.0,Calm,Calm,-,N/A,,Clear,0,2013-08-26 05:55:00